Location: Newark
(25.0000°N, 73.5000°E)
Time: 00:47:28
(UTC+00:00)

SR - Visible Passes

Search period start: 31 July 2021 00:00
Search period end: 10 August 2021 00:00
Orbit: 577 x 878 km, 66.7° (Epoch: 30 July)

Date Brightness Start Highest point End Pass type
(mag) Time Alt. Az. Time Alt. Az. Time Alt. Az.
01 Aug ? 23:34:33 10° S 23:39:59 39° ESE 23:45:19 10° NE visible
02 Aug ? 22:46:35 10° SSE 22:50:24 18° ESE 22:54:10 10° ENE visible
03 Aug ? 23:36:23 10° SSW 23:42:18 80° ESE 23:48:02 10° NNE visible
04 Aug ? 22:48:03 14° S 22:52:36 36° ESE 22:57:48 10° NE visible
05 Aug ? 22:00:24 12° SE 22:03:00 16° ESE 22:06:29 10° ENE visible
05 Aug ? 23:39:51 14° SW 23:44:42 51° WNW 23:50:14 10° N visible
06 Aug ? 22:52:08 33° S 22:54:53 74° ESE 23:00:35 10° NNE visible
07 Aug ? 22:04:20 32° SE 22:05:12 33° ESE 22:10:17 10° NE visible
07 Aug ? 23:43:47 16° WSW 23:47:12 26° WNW 23:51:54 10° N visible
08 Aug ? 21:16:28 14° E 21:16:28 14° E 21:18:44 10° ENE visible
08 Aug ? 22:55:54 45° WSW 22:57:16 55° WNW 23:02:49 10° NNE visible
09 Aug ? 22:07:57 65° E 22:07:57 65° E 22:13:08 10° NNE visible
09 Aug ? 23:47:23 10° W 23:49:51 13° WNW 23:52:30 10° NNW visible
